Monett, MO

4:31 PM CDT on July 22, 2017 (GMT -0500)
Monett

Weather History for KHFJ - January, 2013

Change the Weather History Date:

Tuesday, January 29, 2013

  Actual Average (KJLN) Record (KJLN)
Temperature  
Mean Temperature 55 °F -  
Max Temperature 68 °F 44 °F 73 °F (2011)
Min Temperature 42 °F 25 °F -4 °F (1966)
Degree Days  
Heating Degree Days 10    
Growing Degree Days 5 (Base 50)    
Moisture  
Dew Point 55 °F    
Average Humidity 89    
Maximum Humidity 100    
Minimum Humidity 73    
Precipitation  
Precipitation 1.64 in - - ()
Sea Level Pressure  
Sea Level Pressure 29.60 in    
Wind  
Wind Speed 15 mph (SSE)    
Max Wind Speed 23 mph    
Max Gust Speed 34 mph    
Visibility 8 miles    
Events Rain , Thunderstorm    
Averages and records for this station are not official NWS values.
T = Trace of Precipitation, MM = Missing Value Source: NWS Daily Summary

Daily Weather History Graph

Daily Weather History Graph

Search for Another Location

Airport or City:

Trip Planner

Search our weather history database for the weather conditions in past years. The results will help you decide how hot, cold, wet, or windy it might be!

Date:

Astronomy

Jan. 29, 2013 Rise Set
Actual Time 7:20 AM CST 5:38 PM CST
Civil Twilight 6:53 AM CST 6:05 PM CST
Nautical Twilight 6:21 AM CST 6:37 PM CST
Astronomical Twilight 5:51 AM CST 7:07 PM CST
Moon 8:29 PM CST (1/29) 8:22 AM CST (1/29)
Length of Visible Light 11h 12m
Length of Day
10h 17m
Waning Gibbous, 93% of the Moon is Illuminated
Jan 29
Waning Gibbous
Feb 3
Last Quarter
Feb 10
New
Feb 17
First Quarter
Feb 25
Full

Hourly Weather History & Observations

Time (CST) Temp. Windchill Dew Point Humidity Pressure Visibility Wind Dir Wind Speed Gust Speed Precip Events Conditions
12:15 AM 64.4 °F - 59.0 °F 83% 29.80 in 10.0 mi South 16.1 mph 27.6 mph N/A   Overcast
12:35 AM 64.4 °F - 59.0 °F 83% 29.79 in 10.0 mi South 15.0 mph 23.0 mph N/A   Mostly Cloudy
12:55 AM 64.4 °F - 59.0 °F 83% 29.79 in 10.0 mi South 17.3 mph 23.0 mph N/A   Mostly Cloudy
1:15 AM 66.2 °F - 59.0 °F 78% 29.78 in 10.0 mi South 20.7 mph 28.8 mph N/A   Overcast
1:35 AM 64.4 °F - 59.0 °F 83% 29.78 in 10.0 mi South 20.7 mph 26.5 mph N/A   Overcast
1:55 AM 64.4 °F - 57.2 °F 77% 29.77 in 10.0 mi South 16.1 mph 29.9 mph N/A   Mostly Cloudy
2:15 AM 64.4 °F - 57.2 °F 77% 29.78 in 10.0 mi South 20.7 mph 33.4 mph N/A   Overcast
2:55 AM 64.4 °F - 57.2 °F 77% 29.77 in 10.0 mi South 18.4 mph 25.3 mph N/A   Mostly Cloudy
3:15 AM 64.4 °F - 57.2 °F 77% 29.76 in 10.0 mi South 20.7 mph 27.6 mph N/A   Scattered Clouds
3:35 AM 64.4 °F - 57.2 °F 77% 29.76 in 10.0 mi South 16.1 mph 24.2 mph N/A   Mostly Cloudy
3:55 AM 64.4 °F - 59.0 °F 83% 29.76 in 10.0 mi South 18.4 mph 25.3 mph N/A   Overcast
4:15 AM 64.4 °F - 59.0 °F 83% 29.75 in 10.0 mi South 19.6 mph 33.4 mph N/A   Overcast
4:35 AM 64.4 °F - 59.0 °F 83% 29.74 in 10.0 mi South 20.7 mph 26.5 mph N/A   Overcast
4:55 AM 64.4 °F - 59.0 °F 83% 29.75 in 10.0 mi South 17.3 mph 24.2 mph N/A   Overcast
5:15 AM 64.4 °F - 59.0 °F 83% 29.73 in 10.0 mi South 18.4 mph 29.9 mph N/A   Overcast
5:35 AM 64.4 °F - 59.0 °F 83% 29.73 in 10.0 mi South 20.7 mph 26.5 mph N/A   Overcast
5:55 AM 64.4 °F - 59.0 °F 83% 29.72 in 10.0 mi South 18.4 mph 26.5 mph N/A   Overcast
6:15 AM 64.4 °F - 59.0 °F 83% 29.71 in 10.0 mi South 15.0 mph 23.0 mph N/A   Overcast
6:35 AM 64.4 °F - 59.0 °F 83% 29.70 in 10.0 mi South 17.3 mph 23.0 mph N/A   Overcast
6:55 AM 64.4 °F - 59.0 °F 83% 29.69 in 10.0 mi South 16.1 mph 23.0 mph N/A   Overcast
7:15 AM 64.4 °F - 59.0 °F 83% 29.68 in 10.0 mi South 21.9 mph 28.8 mph N/A   Overcast
7:35 AM 64.4 °F - 59.0 °F 83% 29.68 in 10.0 mi South 18.4 mph 24.2 mph N/A   Overcast
7:55 AM 64.4 °F - 59.0 °F 83% 29.68 in 10.0 mi South 16.1 mph 25.3 mph N/A   Overcast
8:15 AM 64.4 °F - 59.0 °F 83% 29.67 in 10.0 mi South 18.4 mph 28.8 mph N/A   Overcast
8:35 AM 64.4 °F - 59.0 °F 83% 29.67 in 10.0 mi South 18.4 mph 27.6 mph N/A   Overcast
8:55 AM 64.4 °F - 59.0 °F 83% 29.66 in 10.0 mi South 19.6 mph 23.0 mph N/A   Overcast
9:15 AM 64.4 °F - 59.0 °F 83% 29.66 in 10.0 mi South 15.0 mph 26.5 mph N/A   Overcast
9:35 AM 66.2 °F - 59.0 °F 78% 29.65 in 10.0 mi South 18.4 mph 23.0 mph N/A   Overcast
9:55 AM 66.2 °F - 59.0 °F 78% 29.64 in 10.0 mi South 17.3 mph 28.8 mph N/A   Overcast
10:15 AM 68.0 °F - 59.0 °F 73% 29.63 in 10.0 mi South 20.7 mph 29.9 mph N/A   Overcast
10:35 AM 68.0 °F - 59.0 °F 73% 29.62 in 10.0 mi South 19.6 mph 33.4 mph N/A   Overcast
10:55 AM 68.0 °F - 59.0 °F 73% 29.61 in 10.0 mi South 23.0 mph 32.2 mph N/A   Overcast
11:15 AM 68.0 °F - 59.0 °F 73% 29.58 in 10.0 mi South 23.0 mph 32.2 mph N/A   Overcast
11:35 AM 68.0 °F - 59.0 °F 73% 29.56 in 10.0 mi South 23.0 mph 29.9 mph N/A   Overcast
11:55 AM 68.0 °F - 60.8 °F 78% 29.55 in 10.0 mi South 19.6 mph 27.6 mph N/A   Mostly Cloudy
12:15 PM 68.0 °F - 60.8 °F 78% 29.52 in 10.0 mi South 20.7 mph 34.5 mph N/A   Overcast
12:35 PM 64.4 °F - 60.8 °F 88% 29.51 in 10.0 mi South 20.7 mph 27.6 mph N/A Thunderstorm Overcast
12:55 PM 55.4 °F - 51.8 °F 88% 29.55 in 5.0 mi West 15.0 mph 26.5 mph 0.01 in Rain , Thunderstorm Rain
1:15 PM 53.6 °F - 53.6 °F 100% 29.56 in 2.0 mi WNW 3.5 mph - 0.20 in Rain , Thunderstorm Heavy Thunderstorms and Rain
1:35 PM 53.6 °F - 53.6 °F 100% 29.53 in 3.0 mi Calm Calm - 0.35 in Rain , Thunderstorm Heavy Thunderstorms and Rain
1:55 PM 53.6 °F - 53.6 °F 100% 29.55 in 2.0 mi Calm Calm - 0.48 in Rain , Thunderstorm Heavy Thunderstorms and Rain
2:15 PM 53.6 °F - 53.6 °F 100% 29.53 in 2.0 mi Calm Calm - 0.09 in Rain Rain
2:35 PM 53.6 °F - 53.6 °F 100% 29.52 in 1.5 mi Calm Calm - 0.22 in Rain Heavy Rain
2:55 PM 53.6 °F - 53.6 °F 100% 29.50 in 4.0 mi NNE 3.5 mph - 0.27 in Rain , Thunderstorm Rain
3:15 PM 53.6 °F - 53.6 °F 100% 29.50 in 3.0 mi NE 3.5 mph - 0.05 in Rain Heavy Rain
3:35 PM 53.6 °F - 51.8 °F 94% 29.51 in 2.0 mi Calm Calm - 0.17 in Rain , Thunderstorm Heavy Thunderstorms and Rain
3:55 PM 53.6 °F - 51.8 °F 94% 29.50 in 4.0 mi NNE 3.5 mph - 0.25 in Rain , Thunderstorm Thunderstorms and Rain
4:15 PM 51.8 °F - 51.8 °F 100% 29.52 in 4.0 mi Calm Calm - 0.05 in Rain , Thunderstorm Rain
4:35 PM 51.8 °F - 51.8 °F 100% 29.52 in 7.0 mi Calm Calm - 0.08 in Rain Rain
4:55 PM 51.8 °F - 51.8 °F 100% 29.50 in 7.0 mi ENE 5.8 mph - 0.12 in Rain Rain
5:15 PM 51.8 °F - 51.8 °F 100% 29.51 in 10.0 mi Calm Calm - 0.01 in Rain Rain
5:35 PM 51.8 °F - 51.8 °F 100% 29.51 in 7.0 mi ESE 8.1 mph - 0.07 in Rain Heavy Rain
5:55 PM 51.8 °F - 51.8 °F 100% 29.49 in 7.0 mi NNE 3.5 mph - 0.13 in Rain Heavy Rain
6:15 PM 51.8 °F - 50.0 °F 94% 29.53 in 10.0 mi SE 4.6 mph - 0.02 in Rain Light Rain
6:35 PM 51.8 °F - 50.0 °F 94% 29.54 in 7.0 mi SE 5.8 mph - 0.05 in Rain Rain
6:55 PM 51.8 °F - 50.0 °F 94% 29.52 in 7.0 mi ESE 6.9 mph - 0.09 in Rain Rain
7:15 PM 51.8 °F - 50.0 °F 94% 29.52 in 10.0 mi SE 8.1 mph - 0.02 in Rain Light Rain
7:35 PM 50.0 °F - 50.0 °F 100% 29.50 in 10.0 mi ESE 6.9 mph - 0.05 in Rain Light Rain
7:55 PM 50.0 °F - 50.0 °F 100% 29.49 in 10.0 mi ESE 10.4 mph - 0.07 in Rain Light Rain
8:15 PM 50.0 °F - 50.0 °F 100% 29.48 in 7.0 mi SE 9.2 mph - 0.03 in Rain Rain
8:35 PM 50.0 °F - 50.0 °F 100% 29.49 in 10.0 mi SE 9.2 mph - 0.05 in Rain Rain
8:55 PM 50.0 °F - 50.0 °F 100% 29.46 in 7.0 mi ESE 5.8 mph - 0.10 in Rain Rain
9:15 PM 50.0 °F - 50.0 °F 100% 29.47 in 10.0 mi SSE 5.8 mph - 0.01 in Rain Light Rain
9:35 PM 50.0 °F - 50.0 °F 100% 29.48 in 7.0 mi South 5.8 mph - 0.03 in Rain Heavy Rain
9:55 PM 46.4 °F 39.8 °F 46.4 °F 100% 29.54 in 10.0 mi West 16.1 mph 20.7 mph 0.08 in Rain Light Rain
10:15 PM 44.6 °F 36.9 °F 42.8 °F 93% 29.55 in 10.0 mi West 18.4 mph 24.2 mph 0.02 in Rain Light Rain
10:35 PM 42.8 °F 38.6 °F 42.8 °F 100% 29.52 in 7.0 mi NE 6.9 mph - 0.04 in Rain Rain
10:55 PM 42.8 °F 38.6 °F 42.8 °F 100% 29.47 in 10.0 mi NE 6.9 mph - 0.04 in   Overcast
11:15 PM 42.8 °F 41.1 °F 42.8 °F 100% 29.49 in 10.0 mi WNW 3.5 mph - N/A   Overcast
11:35 PM 42.8 °F 41.1 °F 42.8 °F 100% 29.48 in 10.0 mi NW 3.5 mph - N/A   Overcast
11:55 PM 42.8 °F - 41.0 °F 93% 29.47 in 10.0 mi Calm Calm - N/A   Overcast